Home > Weather > Zweibrücken > Past weeks

Flag for Germany Past Weather in Zweibrücken, Rhineland-Palatinate, Germany — Yesterday and Last 2 Weeks

Now
86 °F

Passing clouds.


Feels Like: 85 °F
Forecast: 59 / 76 °F
Wind: 14 mph from Southwest

Location: Saarbruecken / Ensheim

Current Time: Aug 28, 2016 at 2:32:11 PM

Latest Report: Aug 28, 2016 at 1:50 PM


Visibility: N/A

Pressure: 30.01 "Hg

Humidity: 40%

Dew Point: 59 °F

Location of ZweibrückenLocation

Past Weather in Zweibrücken — Graph

°F

Zweibrücken Temperature Yesterday

Maximum temperature yesterday: 93 °F (at 4:20 PM)
Minimum temperature yesterday: 68 °F (at 4:20 AM)
Average temperature yesterday: 80 °F

High & Low Weather Summary for the Past Weeks

 TemperatureHumidityPressure
High93 °F (Aug 26, 4:50 PM)100% (Aug 19, 3:50 AM)30.39 "Hg (Aug 19, 3:50 AM)
Low50 °F (Aug 22, 6:50 AM)26% (Aug 27, 4:20 PM)29.83 "Hg (Aug 18, 4:20 AM)
Average69 °F70%30.08 "Hg
* Reported Aug 13 1:20 PM — Aug 28 1:20 PM, Zweibrücken, Weather by CustomWeather, © 2016

Note: Actual official high and low records may vary slightly from our data, if they occured in-between our weather recording intervals... More about our weather records

Advertising

Zweibrücken Weather History for the Previous 24 Hours

Scroll right to see more
 ConditionsComfort  
Time TempWeatherWind HumidityBarometerVisibility
1:20 PM
Sun, Aug 28
86 °FPassing clouds.13 mph43%30.01 "HgN/A
12:50 PM84 °FSunny.12 mph45%30.01 "Hg10 mi
12:20 PM82 °FPassing clouds.10 mph48%30.04 "HgN/A
11:50 AM82 °FPassing clouds.12 mph48%30.04 "HgN/A
11:20 AM81 °FPassing clouds.13 mph51%30.04 "HgN/A
10:50 AM81 °FPassing clouds.10 mph54%30.04 "HgN/A
10:20 AM79 °FPassing clouds.10 mph54%30.04 "HgN/A
9:50 AM75 °FSunny.14 mph61%30.01 "Hg10 mi
9:20 AM73 °FPassing clouds.12 mph65%30.01 "HgN/A
8:50 AM73 °FPassing clouds.10 mph65%30.01 "HgN/A
8:20 AM72 °FPassing clouds.13 mph69%30.01 "HgN/A
7:50 AM72 °FSunny.13 mph69%30.01 "Hg10 mi
7:20 AM72 °FPassing clouds.9 mph69%30.01 "HgN/A
6:50 AM72 °FPassing clouds.8 mph69%30.01 "HgN/A
6:20 AM72 °FPassing clouds.8 mph73%30.01 "HgN/A
5:50 AM72 °FPassing clouds.8 mph73%30.01 "HgN/A
5:20 AM73 °FPassing clouds.7 mph74%30.01 "HgN/A
4:50 AM73 °FPassing clouds.5 mph74%30.01 "HgN/A
4:20 AM72 °FClear.2 mph78%30.01 "Hg10 mi
3:50 AM70 °FClear.2 mph78%30.01 "Hg10 mi
3:20 AM70 °FClear.1 mph78%30.01 "Hg10 mi
2:50 AM72 °FClear.2 mph73%30.01 "Hg10 mi
2:20 AM72 °FClear.2 mph73%30.01 "Hg10 mi
1:50 AM72 °FClear.2 mph69%30.01 "Hg10 mi
1:20 AM72 °FClear.2 mph69%30.01 "Hg10 mi
12:50 AM73 °FClear.1 mph65%30.01 "Hg10 mi
12:20 AM72 °FClear.3 mph65%30.01 "Hg10 mi
11:50 PM
Sat, Aug 27
73 °FClear.2 mph61%30.01 "Hg10 mi
11:20 PM73 °FClear.5 mph65%30.01 "Hg10 mi
10:50 PM75 °FClear.3 mph61%30.01 "Hg10 mi
10:20 PM75 °FClear.2 mph61%30.01 "Hg10 mi
9:50 PM79 °FClear.2 mph54%30.01 "Hg10 mi
9:20 PM79 °FSunny.6 mph54%30.01 "Hg10 mi
8:50 PM81 °FSunny.2 mph54%30.01 "Hg10 mi
8:20 PM84 °FSunny.2 mph48%30.01 "Hg10 mi
7:50 PM88 °FPassing clouds.5 mph40%30.01 "HgN/A
7:20 PM90 °FPassing clouds.7 mph36%30.01 "HgN/A
6:50 PM90 °FPassing clouds.7 mph33%30.01 "HgN/A
6:20 PM91 °FPassing clouds.6 mph26%30.01 "HgN/A
5:50 PM93 °FPassing clouds.6 mph28%30.01 "HgN/A
5:20 PM93 °FSunny.2 mph26%30.01 "Hg10 mi
4:50 PM93 °FPassing clouds.3 mph28%30.04 "HgN/A
4:20 PM93 °FPassing clouds.5 mph26%30.04 "HgN/A
3:50 PM91 °FSunny.5 mph28%30.04 "Hg10 mi
3:20 PM91 °FSunny.5 mph32%30.04 "Hg10 mi
2:50 PM90 °FPassing clouds.7 mph38%30.07 "HgN/A
2:20 PM91 °FPassing clouds.6 mph36%30.07 "HgN/A
Weather by CustomWeather, © 2016

See weather overviewHow to use our weather pages